Temperature
17 17 17 17 17 17 17 16 16 16 16 16 16 16 16 16 16 16 16 15 15 15 16 16 16 15 15 15 15 15 15 15 15 15 15 15 15 15 15 15 15 15 15
18 17 17 17 17 17 16 16 16 16 16 16 16 16 16 16 16 15 15 15 15 16 16 16 16 15 15 15 15 15 15 15 15 15 15 15 15 15 15 15 15 15 15
18 17 17 17 17 16 16 16 16 16 16 16 16 16 16 16 16 16 16 16 16 16 16 16 16 15 15 15 15 15 15 15 15 15 15 15 15 15 15 15 15 15 15
18 17 17 17 17 16 16 16 16 16 16 16 16 16 16 16 16 16 16 16 16 16 16 16 15 15 15 15 15 15 15 15 15 15 16 16 16 15 15 15 15 15 15
18 17 17 17 16 16 16 16 16 16 16 16 16 16 16 16 16 16 16 16 16 16 16 16 15 15 15 15 15 15 15 15 15 16 16 16 16 16 16 16 16 16 16
18 17 17 16 16 16 16 16 16 16 16 16 16 16 16 16 16 16 16 16 16 16 16 16 15 15 15 15 15 15 15 15 16 16 16 16 16 16 16 16 16 16 16
17 17 16 16 16 16 16 16 16 16 16 16 16 16 16 16 16 16 16 16 16 16 16 16 15 15 15 15 15 15 16 16 16 16 16 16 16 16 16 16 16 16 16
17 17 16 16 16 16 16 16 16 16 16 16 16 16 16 16 16 16 16 16 16 16 16 16 16 15 15 15 16 16 16 16 16 16 16 16 16 16 16 16 16 16 16
17 16 16 16 16 16 16 16 16 16 16 16 16 16 16 16 16 16 16 16 16 16 16 16 16 16 15 15 16 16 16 16 16 16 16 16 16 16 16 16 16 16 15
17 16 16 16 16 16 16 16 16 16 16 16 16 16 16 16 16 16 16 16 16 16 16 16 16 16 16 15 16 16 16 16 16 16 16 16 16 16 16 16 15 15 15
16 16 16 16 16 16 16 16 16 16 16 16 16 16 16 16 16 16 16 16 16 16 16 16 16 16 16 15 15 15 16 16 16 16 16 15 15 15 15 15 15 15 15
16 16 16 16 16 15 15 16 16 16 16 16 16 16 16 16 16 16 16 16 16 16 16 16 16 16 15 15 15 15 15 15 15 15 15 15 15 15 15 15 15 15 15
16 16 16 16 15 15 15 15 15 16 15 16 16 16 16 16 16 16 16 16 16 16 16 16 16 16 15 15 15 15 15 15 15 15 15 15 15 15 15 15 14 14 14
16 16 16 15 15 15 16 15 15 15 16 15 16 16 16 16 16 16 16 16 16 16 16 16 16 16 15 15 15 15 15 15 15 15 15 15 14 14 14 14 14 14 14
16 16 16 15 15 15 15 15 15 15 16 16 16 16 16 16 16 16 16 16 16 16 16 16 16 15 15 15 15 15 15 15 14 14 14 14 14 14 14 14 14 14 14
16 16 16 16 16 15 15 15 15 15 15 16 16 16 16 16 16 16 16 16 16 16 16 15 15 15 15 15 15 14 14 14 14 14 14 14 14 14 14 14 13 13 13
16 16 16 16 15 15 15 15 15 15 15 15 15 15 15 15 16 16 16 16 16 16 15 15 15 15 14 14 14 14 14 14 14 14 14 14 14 14 14 13 13 13 13
16 16 16 16 16 15 15 15 15 15 15 15 15 15 15 15 15 15 15 16 15 15 15 15 15 14 14 14 14 14 14 14 14 14 14 14 14 13 13 13 13 13 12
16 16 15 16 16 15 15 15 15 15 15 15 15 15 15 15 15 15 15 15 15 15 15 14 14 14 14 14 14 14 14 14 14 14 14 14 14 13 13 13 12 12 12
16 16 15 15 15 15 15 15 15 15 15 15 15 15 15 15 14 14 15 15 15 14 14 14 14 14 14 13 13 13 14 14 14 14 14 14 13 13 13 12 12 12 12
16 16 15 15 15 15 15 15 15 15 15 15 15 15 15 15 15 14 14 14 14 14 14 14 14 13 13 13 13 13 13 14 14 14 14 14 13 13 13 12 12 12 12
16 16 15 16 16 15 15 15 15 15 15 15 15 15 15 15 14 14 14 14 14 14 14 14 13 13 13 13 12 12 12 13 14 14 13 13 13 13 12 12 12 12 11
16 16 16 16 16 16 16 15 15 15 15 15 15 15 15 15 14 14 14 14 14 14 14 14 14 13 13 13 12 12 12 12 12 13 13 13 12 12 12 12 12 11 11
16 16 16 16 16 16 15 15 15 15 15 15 15 15 15 14 14 14 14 14 14 14 14 14 13 13 13 13 12 12 12 12 11 11 12 12 12 12 11 11 11 11 11
16 16 16 16 16 16 15 15 15 15 15 15 15 15 14 14 14 14 14 14 14 13 13 13 13 13 12 12 12 12 12 11 11 11 11 11 11 11 11 11 10 10 10
16 16 16 15 15 15 15 15 15 15 15 15 14 14 14 14 14 14 14 13 13 13 13 13 13 12 12 12 12 11 11 11 11 11 10 11 11 10 10 10 10 10 9
Wind_Speed
11 17 25 24 23 22 21 20 19 18 18 17 17 17 18 18 19 19 19 19 19 20 20 21 21 21 21 22 21 21 21 21 20 20 19 19 19 19 18 18 17 17 19
15 22 26 25 24 23 21 20 20 19 18 17 17 17 18 18 18 18 19 19 20 20 21 21 20 21 21 20 20 19 19 19 19 19 18 19 19 18 18 18 17 17 19
19 23 25 25 24 23 22 21 20 19 18 17 17 17 17 18 18 19 19 19 20 20 20 20 20 20 19 18 17 16 16 17 17 16 16 15 17 18 18 17 17 18 18
20 22 24 26 25 23 22 21 20 19 18 18 18 18 18 18 19 19 19 19 20 20 20 20 19 18 17 16 15 16 16 16 16 15 14 13 14 16 16 16 16 17 17
18 21 24 26 25 24 22 21 20 19 18 18 18 18 18 19 19 19 20 20 19 19 19 18 17 16 16 15 16 16 17 17 16 15 14 14 13 15 15 15 15 15 16
16 20 25 26 25 24 23 22 20 19 19 19 19 18 19 19 20 20 20 20 19 18 18 17 16 15 15 15 16 16 16 16 16 15 13 12 12 14 14 14 14 14 14
16 20 24 26 25 24 23 22 21 20 19 19 19 19 19 19 19 20 19 19 18 17 17 16 14 13 13 14 15 15 16 16 15 13 12 11 12 13 13 13 13 13 13
17 18 22 25 24 23 23 22 21 20 20 19 19 19 19 19 19 19 19 18 17 16 15 14 13 11 11 12 13 13 14 13 12 11 11 10 11 12 12 11 11 11 11
16 15 17 21 22 22 22 21 21 20 20 20 19 19 19 19 18 18 17 17 16 15 14 13 11 10 10 10 11 11 11 11 11 9 9 9 10 10 10 10 10 10 10
14 13 13 17 19 19 19 21 21 20 20 20 19 20 19 18 17 17 16 16 15 14 12 11 10 8 7 8 8 9 9 9 9 8 8 9 9 9 8 8 8 8 8
15 13 12 13 16 17 18 19 20 20 20 20 19 21 19 16 16 15 15 15 14 13 11 10 8 7 6 5 5 6 6 7 8 7 7 9 8 8 7 7 7 6 6
18 15 13 12 13 15 15 16 16 16 17 17 17 17 16 15 14 14 15 15 14 12 10 9 7 5 3 2 2 3 4 5 6 6 7 9 8 8 7 6 6 5 5
18 16 14 13 14 13 11 13 12 13 14 15 17 16 15 13 12 12 12 12 11 11 8 7 5 4 3 2 2 2 4 5 6 7 9 10 9 8 7 6 6 5 5
17 16 15 13 13 13 13 12 12 11 11 12 15 16 14 10 9 10 10 11 10 9 8 7 5 5 5 5 5 5 5 6 7 8 10 12 11 9 8 7 7 6 6
16 17 16 14 13 12 11 10 11 11 12 14 15 16 15 11 8 9 9 10 10 10 9 7 6 6 6 6 6 6 6 7 8 10 10 12 12 11 10 9 8 8 8
14 15 15 16 14 13 10 9 9 12 13 14 14 16 17 14 12 10 8 9 10 11 11 9 8 6 6 5 5 6 7 7 8 9 11 13 14 14 12 11 10 10 9
13 13 15 16 14 13 12 11 11 12 13 12 14 17 17 16 14 11 8 7 10 12 11 8 7 5 4 3 3 4 5 6 7 9 11 12 14 15 15 14 12 11 11
11 12 13 14 15 14 11 10 9 11 12 12 14 15 17 17 16 12 7 7 11 11 8 5 3 3 3 3 3 3 3 4 6 9 10 12 13 13 15 15 14 13 12
10 12 12 12 14 13 11 9 9 10 10 12 13 13 14 15 15 12 8 8 10 7 5 4 3 3 3 3 3 3 3 3 6 8 8 11 13 13 14 14 15 15 13
9 10 11 11 12 11 9 7 6 6 6 9 10 12 14 14 14 12 8 8 9 5 4 4 3 3 3 3 3 3 4 5 5 5 7 9 10 12 13 13 12 13 14
8 10 11 12 12 11 8 8 7 6 6 6 6 11 13 13 13 11 6 6 6 5 5 5 3 3 3 2 1 3 4 5 5 5 5 4 5 8 9 10 10 10 10
9 10 10 11 11 11 9 7 6 6 4 5 4 7 11 12 12 10 7 6 5 5 5 5 4 3 2 3 3 1 3 4 3 3 3 3 3 4 4 6 7 7 7
9 11 10 11 11 11 10 6 5 4 3 3 5 5 6 10 10 10 9 7 5 6 6 6 6 6 4 4 3 4 3 4 3 3 2 1 1 1 1 2 3 5 5
8 8 9 10 10 10 10 9 10 8 7 7 6 5 5 8 8 9 9 8 6 5 5 5 5 4 5 4 3 4 4 3 3 3 2 1 1 1 1 1 1 2 3
6 6 7 8 8 8 9 10 10 7 6 5 5 6 6 5 6 8 8 7 5 5 5 5 4 5 4 4 4 3 4 4 5 4 5 3 1 1 1 1 1 1 2
4 5 6 6 6 6 8 9 9 9 8 7 6 6 5 4 4 5 6 6 5 4 5 5 5 5 5 5 4 3 3 3 4 5 6 4 4 2 1 0 0 1 1
Wind_Direction
155 156 150 147 142 137 133 129 125 121 117 114 113 113 112 112 112 112 112 112 111 109 106 104 102 101 99 97 96 93 90 86 83 81 79 79 79 79 77 73 70 70 74
149 153 149 147 143 139 135 131 127 124 121 118 117 117 116 114 114 115 116 115 112 110 107 106 103 103 101 99 99 97 93 89 87 82 78 78 79 79 78 75 73 74 74
146 150 148 146 143 140 137 133 129 126 125 122 120 119 118 117 116 115 116 115 113 110 109 107 106 104 102 101 99 100 99 94 90 84 78 77 79 80 79 76 74 74 73
145 148 148 146 144 141 139 136 132 129 127 124 121 119 118 118 118 116 114 114 112 111 110 108 107 105 102 98 97 99 101 99 94 86 78 75 78 80 79 78 75 74 74
143 146 149 146 145 143 141 138 135 132 129 125 123 119 119 119 118 116 115 113 112 111 111 110 110 106 100 95 97 99 100 98 97 91 84 79 80 81 80 78 77 75 75
140 145 149 147 146 145 143 141 138 135 133 130 126 123 121 120 118 116 115 114 114 113 113 113 112 106 97 94 98 99 101 101 99 93 87 84 85 86 84 81 80 78 77
140 145 150 148 148 147 145 143 141 138 137 134 131 128 125 123 121 120 119 119 118 117 116 115 113 106 97 95 99 100 103 105 103 98 92 89 91 91 88 85 83 82 80
143 147 151 149 149 148 147 145 143 141 140 138 135 133 130 128 126 126 125 124 123 122 121 119 117 109 99 97 100 102 106 108 109 103 99 97 98 95 92 90 88 86 84
144 147 150 151 150 150 149 148 146 144 143 142 139 137 133 133 132 131 130 129 128 127 126 125 124 116 105 101 101 101 106 113 116 113 110 110 109 103 100 97 94 91 88
146 149 150 151 151 150 150 149 148 146 144 143 141 139 137 136 135 134 133 133 132 132 132 132 132 125 112 103 102 106 111 119 123 127 128 128 123 115 111 107 103 100 97
156 155 154 153 153 152 153 153 150 148 146 143 144 142 140 138 137 138 140 139 139 140 142 143 142 137 123 108 107 113 118 130 137 142 149 148 141 133 128 124 120 117 113
165 164 161 158 156 156 157 154 152 150 150 148 150 147 146 144 144 146 147 147 147 150 153 156 158 155 145 125 115 126 138 151 163 167 172 168 161 154 149 148 145 142 139
167 167 167 164 161 160 155 156 155 155 157 157 158 156 154 151 151 152 152 154 155 157 163 168 173 187 197 212 227 204 189 186 188 187 186 183 180 176 174 175 175 174 172
168 170 170 168 165 164 160 163 163 162 164 166 170 166 161 159 159 162 164 166 168 172 176 183 194 213 232 243 241 231 220 201 198 197 196 195 195 196 197 198 200 201 202
171 172 172 170 169 167 163 168 170 172 174 174 177 177 173 169 170 171 176 178 182 185 187 192 203 219 238 247 240 223 212 205 203 201 203 205 208 211 214 215 215 217 221
173 174 174 174 172 169 169 173 174 178 178 177 180 184 180 177 176 176 179 185 191 196 199 200 208 218 226 224 227 221 213 212 213 210 214 215 218 221 222 225 227 228 230
172 173 174 175 173 172 173 177 177 180 179 180 182 184 183 181 179 180 180 187 197 201 203 204 212 214 219 217 223 225 221 223 225 226 226 224 225 228 228 230 231 232 234
172 174 176 176 175 176 175 177 175 178 178 180 180 181 181 181 180 178 179 189 197 196 194 191 190 192 207 209 220 235 237 240 240 237 233 229 227 229 232 232 233 235 236
176 179 180 177 176 177 173 173 173 175 178 178 177 178 183 181 179 176 181 188 187 184 186 186 188 184 200 218 232 244 247 243 245 244 238 235 232 230 231 233 233 235 239
176 180 183 178 179 175 169 165 163 167 176 177 177 179 182 184 183 180 181 185 180 175 185 189 193 192 196 208 238 257 257 253 249 244 241 240 235 233 231 230 233 237 240
174 177 185 180 179 172 169 168 170 179 180 180 181 181 181 183 184 183 181 181 179 182 190 188 183 197 210 178 209 296 292 271 259 255 246 239 237 234 229 228 230 231 236
182 180 184 185 181 176 176 175 171 164 174 179 173 182 184 183 183 183 179 182 180 180 185 187 179 181 202 175 173 227 302 315 302 272 253 231 230 226 220 223 219 219 223
187 184 185 187 185 180 173 158 144 130 125 164 179 188 191 185 181 178 180 181 183 185 193 194 186 186 204 211 192 185 211 250 294 310 304 261 232 212 231 231 221 219 221
195 187 180 180 182 180 171 171 170 175 183 193 188 187 183 181 179 181 181 184 186 190 196 199 196 197 194 214 221 221 216 204 229 287 307 321 323 257 255 237 234 237 228
186 180 180 174 178 178 176 179 180 182 185 175 170 175 181 181 180 181 180 181 185 191 197 195 191 200 203 210 213 216 230 233 226 238 265 270 293 269 230 212 223 233 230
180 171 166 164 178 180 179 179 180 181 174 166 174 181 183 180 178 180 180 185 190 193 197 198 197 201 209 213 216 216 216 224 222 225 245 247 247 238 228 234 234 234 226
Height
1520 1524 1527 1530 1533 1535 1537 1538 1539 1540 1541 1542 1543 1544 1545 1547 1548 1550 1551 1552 1554 1555 1556 1557 1558 1558 1559 1560 1560 1560 1561 1561 1561 1561 1561 1561 1561 1561 1560 1560 1559 1559 1558
1516 1522 1527 1530 1533 1535 1537 1539 1540 1541 1542 1543 1544 1545 1547 1548 1550 1551 1553 1554 1555 1556 1557 1558 1559 1560 1561 1562 1562 1563 1563 1563 1564 1564 1564 1564 1563 1563 1563 1562 1562 1561 1561
1517 1522 1527 1530 1533 1535 1537 1539 1541 1542 1543 1545 1546 1547 1548 1550 1551 1553 1554 1556 1557 1558 1559 1560 1561 1563 1563 1564 1565 1565 1566 1566 1566 1566 1566 1566 1566 1565 1565 1565 1564 1563 1563
1517 1522 1526 1530 1533 1536 1538 1540 1541 1543 1544 1546 1547 1548 1550 1551 1553 1554 1556 1557 1559 1560 1561 1562 1564 1565 1565 1566 1567 1567 1568 1568 1568 1569 1568 1568 1568 1567 1567 1567 1566 1565 1565
1518 1522 1527 1531 1534 1536 1538 1540 1542 1544 1545 1547 1548 1550 1551 1553 1554 1556 1557 1559 1560 1562 1563 1564 1566 1567 1567 1568 1569 1569 1570 1570 1570 1571 1570 1570 1570 1569 1569 1568 1568 1567 1566
1518 1523 1527 1531 1534 1536 1539 1541 1543 1545 1546 1548 1549 1551 1552 1554 1556 1557 1559 1560 1562 1564 1565 1566 1568 1569 1569 1570 1571 1571 1572 1572 1572 1572 1572 1572 1571 1571 1570 1570 1569 1569 1568
1518 1523 1528 1531 1534 1537 1539 1541 1543 1545 1547 1549 1550 1552 1554 1555 1557 1559 1560 1562 1564 1565 1567 1568 1570 1571 1571 1572 1573 1573 1574 1574 1574 1574 1574 1574 1573 1573 1572 1572 1571 1570 1570
1519 1524 1528 1532 1535 1537 1540 1542 1544 1546 1548 1550 1551 1553 1555 1556 1558 1560 1562 1563 1565 1567 1568 1570 1571 1572 1573 1574 1574 1575 1575 1576 1576 1576 1576 1575 1575 1574 1574 1573 1573 1572 1571
1520 1524 1528 1532 1535 1538 1540 1542 1544 1547 1549 1550 1552 1554 1556 1557 1559 1561 1563 1564 1566 1568 1570 1571 1572 1574 1575 1575 1576 1576 1577 1577 1577 1577 1577 1576 1576 1576 1575 1574 1574 1573 1573
1521 1525 1528 1532 1535 1537 1540 1542 1545 1547 1549 1551 1553 1554 1556 1558 1560 1562 1564 1565 1567 1569 1571 1572 1574 1575 1576 1576 1577 1577 1578 1578 1578 1578 1578 1578 1577 1577 1576 1576 1575 1574 1573
1521 1525 1528 1531 1534 1537 1540 1542 1545 1547 1549 1551 1553 1555 1557 1558 1560 1562 1564 1566 1568 1570 1571 1573 1574 1576 1576 1577 1578 1578 1578 1579 1579 1579 1579 1578 1578 1577 1577 1576 1576 1575 1574
1519 1523 1527 1530 1533 1536 1539 1542 1544 1547 1549 1551 1553 1555 1557 1559 1561 1563 1565 1567 1568 1570 1572 1573 1575 1576 1577 1577 1578 1578 1579 1579 1579 1579 1579 1579 1578 1578 1577 1576 1576 1575 1574
1517 1521 1525 1529 1532 1535 1538 1541 1543 1546 1548 1550 1552 1555 1557 1559 1561 1563 1564 1566 1568 1570 1572 1573 1574 1576 1577 1578 1578 1578 1579 1579 1579 1579 1579 1579 1578 1578 1577 1576 1576 1575 1574
1516 1520 1524 1528 1531 1534 1537 1540 1542 1545 1547 1549 1551 1554 1556 1558 1560 1562 1564 1566 1568 1570 1571 1573 1574 1575 1576 1577 1578 1578 1578 1578 1578 1578 1578 1578 1578 1577 1577 1576 1575 1574 1574
1515 1518 1522 1526 1529 1533 1536 1539 1541 1544 1546 1549 1551 1553 1555 1557 1559 1561 1564 1566 1567 1569 1571 1572 1573 1574 1575 1576 1577 1577 1577 1577 1577 1577 1577 1577 1577 1576 1576 1575 1574 1573 1572
1512 1516 1520 1524 1528 1531 1534 1537 1540 1543 1545 1548 1550 1552 1554 1556 1558 1560 1562 1564 1566 1568 1570 1571 1572 1573 1574 1575 1575 1575 1576 1576 1576 1576 1576 1575 1575 1575 1574 1574 1573 1572 1571
1510 1514 1518 1521 1526 1529 1533 1536 1539 1541 1544 1546 1548 1551 1553 1555 1557 1559 1561 1563 1565 1567 1568 1569 1570 1571 1572 1573 1573 1574 1574 1574 1574 1574 1573 1573 1573 1573 1572 1572 1571 1570 1569
1509 1512 1516 1519 1523 1527 1531 1534 1537 1540 1542 1545 1547 1549 1551 1553 1556 1557 1559 1561 1563 1564 1566 1567 1568 1569 1570 1570 1571 1571 1571 1571 1571 1571 1571 1570 1570 1570 1570 1569 1569 1568 1567
1507 1510 1514 1517 1520 1524 1528 1532 1535 1537 1540 1543 1545 1547 1550 1552 1554 1555 1557 1559 1560 1562 1563 1565 1566 1567 1568 1568 1568 1568 1568 1568 1568 1568 1567 1567 1567 1566 1566 1566 1565 1565 1564
1505 1508 1511 1514 1518 1522 1525 1529 1532 1535 1538 1540 1542 1545 1547 1549 1551 1553 1555 1556 1558 1559 1561 1562 1563 1564 1565 1565 1566 1565 1565 1565 1564 1564 1563 1563 1563 1562 1562 1562 1562 1562 1561
1503 1506 1509 1512 1515 1518 1521 1525 1528 1531 1534 1537 1539 1542 1544 1546 1548 1550 1552 1554 1555 1556 1558 1559 1560 1561 1562 1562 1562 1561 1561 1560 1560 1559 1559 1559 1559 1558 1558 1558 1558 1558 1558
1501 1503 1506 1509 1512 1515 1518 1521 1525 1528 1531 1534 1536 1539 1541 1543 1545 1546 1548 1550 1552 1553 1555 1556 1557 1557 1558 1559 1559 1558 1557 1556 1555 1555 1555 1555 1555 1555 1554 1554 1554 1554 1554
1499 1501 1504 1507 1509 1512 1516 1519 1522 1525 1528 1530 1532 1534 1537 1539 1541 1543 1545 1547 1549 1550 1551 1552 1553 1554 1554 1555 1556 1556 1555 1553 1552 1551 1551 1551 1551 1551 1551 1551 1550 1550 1549
1495 1499 1501 1504 1507 1510 1512 1515 1517 1519 1522 1525 1528 1530 1533 1535 1537 1539 1541 1543 1545 1546 1547 1548 1549 1550 1550 1550 1551 1551 1551 1551 1550 1548 1547 1547 1547 1547 1547 1546 1546 1545 1545
1493 1496 1499 1501 1504 1506 1509 1512 1514 1516 1519 1522 1525 1527 1530 1531 1533 1535 1537 1539 1540 1542 1543 1544 1544 1545 1545 1546 1546 1546 1546 1546 1546 1545 1543 1542 1542 1542 1542 1541 1541 1540 1539
1490 1493 1496 1498 1501 1503 1506 1508 1510 1513 1515 1518 1520 1523 1525 1527 1529 1531 1533 1535 1536 1537 1538 1539 1540 1540 1541 1541 1541 1541 1540 1540 1540 1540 1538 1537 1536 1537 1536 1536 1535 1535 1534